Weather History for Fort Benning, GA

Change the Weather History Date:

Thursday, January 17, 2013

  Actual Average Record
Temperature  
Mean Temperature 48 °F -  
Max Temperature 59 °F 57 °F 71 °F (1999)
Min Temperature 37 °F 32 °F 17 °F (1997)
Degree Days  
Heating Degree Days 17    
Moisture  
Dew Point 48 °F    
Average Humidity 92    
Maximum Humidity 100    
Minimum Humidity 75    
Precipitation  
Precipitation 0.16 in - - ()
Sea Level Pressure  
Sea Level Pressure 29.94 in    
Wind  
Wind Speed 5 mph (SW)    
Max Wind Speed 17 mph    
Max Gust Speed 25 mph    
Visibility 8 miles    
Events Rain    
Averages and records for this station are not official NWS values.
T = Trace of Precipitation, MM = Missing Value Source: NWS Daily Summary

Daily Weather History Graph

Daily Weather History Graph

Search for Another Location

Airport:

Trip Planner

Search our weather history database for the weather conditions in past years. The results will help you decide how hot, cold, wet, or windy it might be!

Date:

Astronomy

Jan. 17, 2013 Rise Set
Actual Time 7:40 AM EST 5:59 PM EST
Civil Twilight 7:14 AM EST 6:26 PM EST
Nautical Twilight 6:44 AM EST 6:56 PM EST
Astronomical Twilight 6:15 AM EST 7:25 PM EST
Moon 11:12 AM EST (1/17) No Moon Set
Length of Visible Light 11h 11m
Length of Day
10h 18m
Waxing Crescent, 37% of the Moon is Illuminated
Jan 17
Waxing Crescent
Jan 18
First Quarter
Jan 26
Full
Feb 3
Last Quarter
Feb 10
New

Hourly Weather History & Observations

Time (EST) Temp. Windchill Dew Point Humidity Pressure Visibility Wind Dir Wind Speed Gust Speed Precip Events Conditions
12:01 AM 57.2 °F - 57.2 °F 100% 29.94 in 4.0 mi NNW 4.6 mph - N/A Rain Rain
12:05 AM 57.2 °F - 57.2 °F 100% 29.93 in 5.0 mi NNW 5.8 mph - N/A Rain Light Rain
12:27 AM 57.2 °F - 57.2 °F 100% 29.94 in 7.0 mi Calm Calm - N/A Rain Light Rain
12:31 AM 57.2 °F - 57.2 °F 100% 29.94 in 6.0 mi Calm Calm - N/A Rain Light Rain
12:33 AM 57.2 °F - 57.2 °F 100% 29.94 in 7.0 mi Calm Calm - N/A Rain Light Rain
12:37 AM 57.2 °F - 57.2 °F 100% 29.94 in 8.0 mi Calm Calm - N/A   Light Drizzle
12:40 AM 57.2 °F - 57.2 °F 100% 29.94 in 7.0 mi Calm Calm - N/A Rain Light Rain
12:41 AM 57.2 °F - 57.2 °F 100% 29.94 in 7.0 mi Calm Calm - N/A Rain Light Rain
12:47 AM 59.0 °F - 57.2 °F 94% 29.94 in 6.0 mi SSE 3.5 mph - N/A Rain Light Rain
12:49 AM 59.0 °F - 57.2 °F 94% 29.94 in 6.0 mi SE 3.5 mph - N/A Rain Light Rain
12:54 AM 59.0 °F - 57.2 °F 94% 29.94 in 6.0 mi SE 4.6 mph - N/A Rain Light Rain
12:55 AM 58.1 °F - 57.7 °F 99% 29.94 in 6.0 mi SE 4.6 mph - 0.05 in Rain Light Rain
12:56 AM 59.0 °F - 57.2 °F 94% 29.94 in 6.0 mi SSE 4.6 mph - N/A Rain Light Rain
1:00 AM 59.0 °F - 57.2 °F 94% 29.94 in 6.0 mi SSE 4.6 mph - N/A Rain Light Rain
1:03 AM 59.0 °F - 57.2 °F 94% 29.94 in 7.0 mi SSE 3.5 mph - N/A Rain Light Rain
1:04 AM 59.0 °F - 57.2 °F 94% 29.94 in 7.0 mi South 3.5 mph - N/A Rain Light Rain
1:05 AM 59.0 °F - 57.2 °F 94% 29.94 in 7.0 mi Calm Calm - N/A Rain Light Rain
1:15 AM 57.2 °F - 57.2 °F 100% 29.94 in 5.0 mi Calm Calm - N/A Rain Light Rain
1:22 AM 57.2 °F - 57.2 °F 100% 29.94 in 6.0 mi South 3.5 mph - N/A Rain Light Rain
1:24 AM 57.2 °F - 57.2 °F 100% 29.94 in 6.0 mi Calm Calm - N/A Rain Light Rain
1:28 AM 57.2 °F - 57.2 °F 100% 29.94 in 7.0 mi South 3.5 mph - N/A Rain Light Rain
1:29 AM 57.2 °F - 57.2 °F 100% 29.94 in 7.0 mi Calm Calm - N/A Rain Light Rain
1:30 AM 59.0 °F - 57.2 °F 94% 29.94 in 8.0 mi Calm Calm - N/A Rain Light Rain
1:37 AM 59.0 °F - 57.2 °F 94% 29.94 in 10.0 mi South 3.5 mph - N/A   Light Drizzle
1:38 AM 59.0 °F - 57.2 °F 94% 29.94 in 10.0 mi South 3.5 mph - N/A   Light Drizzle
1:39 AM 59.0 °F - 57.2 °F 94% 29.94 in 9.0 mi South 4.6 mph - N/A Rain Light Rain
1:45 AM 59.0 °F - 57.2 °F 94% 29.94 in 7.0 mi South 4.6 mph - N/A Rain Light Rain
1:46 AM 59.0 °F - 57.2 °F 94% 29.94 in 7.0 mi South 4.6 mph - N/A Rain Light Rain
1:55 AM 58.1 °F - 57.7 °F 99% 29.93 in 6.0 mi SSE 4.6 mph - 0.03 in Rain Light Rain
1:56 AM 59.0 °F - 57.2 °F 94% 29.93 in 6.0 mi SE 4.6 mph - N/A Rain Light Rain
1:57 AM 59.0 °F - 57.2 °F 94% 29.93 in 6.0 mi SSE 4.6 mph - N/A Rain Light Rain
2:17 AM 59.0 °F - 57.2 °F 94% 29.91 in 5.0 mi SE 4.6 mph - N/A Rain Light Rain
2:24 AM 59.0 °F - 57.2 °F 94% 29.91 in 9.0 mi SE 4.6 mph - N/A   Light Drizzle
2:26 AM 59.0 °F - 57.2 °F 94% 29.90 in 10.0 mi SE 4.6 mph - N/A   Light Drizzle
2:36 AM 59.0 °F - 57.2 °F 94% 29.90 in 10.0 mi SE 6.9 mph - N/A Rain Light Rain
2:37 AM 59.0 °F - 59.0 °F 100% 29.90 in 10.0 mi SE 8.1 mph - N/A Rain Light Rain
2:41 AM 59.0 °F - 59.0 °F 100% 29.90 in 10.0 mi SE 6.9 mph - N/A   Light Drizzle
2:44 AM 59.0 °F - 59.0 °F 100% 29.90 in 10.0 mi SSE 5.8 mph - N/A   Light Drizzle
2:46 AM 59.0 °F - 59.0 °F 100% 29.90 in 10.0 mi SSE 5.8 mph - N/A   Overcast
2:47 AM 59.0 °F - 59.0 °F 100% 29.90 in 10.0 mi SSE 5.8 mph - N/A   Overcast
2:48 AM 59.0 °F - 59.0 °F 100% 29.90 in 10.0 mi SSE 5.8 mph - N/A   Overcast
2:49 AM 59.0 °F - 59.0 °F 100% 29.90 in 10.0 mi SSE 5.8 mph - N/A   Overcast
2:55 AM 58.5 °F - 58.1 °F 99% 29.90 in 10.0 mi SSE 4.6 mph - 0.02 in   Overcast
3:08 AM 59.0 °F - 59.0 °F 100% 29.90 in 10.0 mi South 3.5 mph - N/A   Overcast
3:10 AM 59.0 °F - 59.0 °F 100% 29.89 in 10.0 mi South 4.6 mph - N/A   Overcast
3:16 AM 59.0 °F - 59.0 °F 100% 29.89 in 10.0 mi Calm Calm - N/A   Overcast
3:48 AM 59.0 °F - 59.0 °F 100% 29.88 in 10.0 mi Calm Calm - N/A   Overcast
3:53 AM 59.0 °F - 59.0 °F 100% 29.88 in 10.0 mi Calm Calm - N/A Rain Light Rain
3:55 AM 59.0 °F - 58.6 °F 99% 29.88 in 10.0 mi Calm Calm - 0.00 in Rain Light Rain
4:18 AM 59.0 °F - 59.0 °F 100% 29.88 in 10.0 mi West 4.6 mph - N/A Rain Light Rain
4:21 AM 59.0 °F - 59.0 °F 100% 29.88 in 10.0 mi Variable 3.5 mph - N/A Rain Light Rain
4:22 AM 59.0 °F - 59.0 °F 100% 29.88 in 10.0 mi WSW 3.5 mph - N/A Rain Light Rain
4:26 AM 59.0 °F - 59.0 °F 100% 29.88 in 10.0 mi Calm Calm - N/A Rain Light Rain
4:31 AM 59.0 °F - 59.0 °F 100% 29.88 in 10.0 mi West 3.5 mph - N/A Rain Light Rain
4:34 AM 59.0 °F - 59.0 °F 100% 29.87 in 10.0 mi Calm Calm - N/A Rain Light Rain
4:36 AM 59.0 °F - 59.0 °F 100% 29.87 in 10.0 mi Calm Calm - N/A   Light Drizzle
4:39 AM 59.0 °F - 59.0 °F 100% 29.87 in 10.0 mi Variable 5.8 mph - N/A   Light Drizzle
4:52 AM 57.2 °F - 57.2 °F 100% 29.88 in 7.0 mi WSW 6.9 mph - N/A Rain Light Rain
4:55 AM 57.7 °F - 57.6 °F 99% 29.88 in 7.0 mi West 4.6 mph - 0.02 in Rain Light Rain
5:11 AM 57.2 °F - 55.4 °F 94% 29.87 in 5.0 mi West 6.9 mph - N/A   Light Drizzle
5:15 AM 57.2 °F - 55.4 °F 94% 29.87 in 5.0 mi WSW 8.1 mph - N/A   Overcast
5:24 AM 55.4 °F - 55.4 °F 100% 29.87 in 4.0 mi West 6.9 mph - N/A   Light Drizzle
5:27 AM 55.4 °F - 55.4 °F 100% 29.87 in 4.0 mi West 6.9 mph - N/A   Light Drizzle
5:34 AM 55.4 °F - 55.4 °F 100% 29.87 in 4.0 mi West 10.4 mph - N/A   Light Drizzle
5:55 AM 54.0 °F - 53.6 °F 99% 29.88 in 7.0 mi Variable 5.8 mph - 0.00 in   Light Drizzle
5:58 AM 53.6 °F - 53.6 °F 100% 29.87 in 8.0 mi Variable 5.8 mph - N/A   Light Drizzle
5:59 AM 53.6 °F - 53.6 °F 100% 29.87 in 8.0 mi Variable 5.8 mph - N/A   Overcast
6:01 AM 53.6 °F - 53.6 °F 100% 29.87 in 9.0 mi WSW 5.8 mph - N/A   Overcast
6:02 AM 53.6 °F - 53.6 °F 100% 29.88 in 9.0 mi WSW 4.6 mph - N/A Rain Light Rain
6:16 AM 53.6 °F - 51.8 °F 94% 29.88 in 10.0 mi West 5.8 mph - N/A   Overcast
6:39 AM 51.8 °F - 51.8 °F 100% 29.88 in 10.0 mi Variable 4.6 mph - N/A   Overcast
6:42 AM 51.8 °F - 50.0 °F 94% 29.88 in 10.0 mi West 5.8 mph - N/A   Overcast
6:55 AM 51.3 °F - 50.5 °F 97% 29.88 in 10.0 mi Variable 6.9 mph - 0.01 in Rain Light Rain
6:58 AM 51.8 °F - 50.0 °F 94% 29.88 in 10.0 mi WSW 6.9 mph - N/A   Light Drizzle
7:04 AM 50.0 °F - 50.0 °F 100% 29.89 in 10.0 mi Variable 6.9 mph - N/A   Overcast
7:10 AM 50.0 °F - 50.0 °F 100% 29.89 in 9.0 mi Variable 6.9 mph - N/A   Overcast
7:17 AM 50.0 °F - 50.0 °F 100% 29.89 in 9.0 mi SW 4.6 mph - N/A   Light Drizzle
7:22 AM 50.0 °F - 50.0 °F 100% 29.89 in 8.0 mi WSW 4.6 mph - N/A   Light Drizzle
7:25 AM 50.0 °F - 50.0 °F 100% 29.89 in 7.0 mi Variable 3.5 mph - N/A   Light Drizzle
7:39 AM 50.0 °F - 48.2 °F 94% 29.90 in 5.0 mi WSW 8.1 mph - N/A Rain Light Rain
7:49 AM 50.0 °F - 48.2 °F 94% 29.92 in 4.0 mi Variable 6.9 mph - N/A   Light Drizzle
7:52 AM 50.0 °F - 48.2 °F 94% 29.92 in 4.0 mi West 8.1 mph - N/A   Light Drizzle
7:55 AM 49.3 °F - 48.7 °F 98% 29.91 in 3.0 mi West 6.9 mph - 0.01 in   Light Drizzle
8:09 AM 48.2 °F - 48.2 °F 100% 29.92 in 4.0 mi WSW 8.1 mph - N/A   Light Drizzle
8:12 AM 48.2 °F - 48.2 °F 100% 29.92 in 4.0 mi West 8.1 mph - N/A   Overcast
8:14 AM 48.2 °F - 48.2 °F 100% 29.92 in 4.0 mi Variable 6.9 mph - N/A Rain Light Rain
8:26 AM 48.2 °F - 46.4 °F 93% 29.92 in 2.5 mi West 9.2 mph - N/A Rain Light Rain
8:29 AM 48.2 °F - 46.4 °F 93% 29.92 in 3.0 mi West 9.2 mph - N/A Rain Light Rain
8:55 AM 46.8 °F - 45.3 °F 95% 29.94 in 4.0 mi WSW 9.2 mph - 0.01 in   Light Drizzle
8:56 AM 46.4 °F 42.9 °F 44.6 °F 93% 29.94 in 5.0 mi WSW 6.9 mph - N/A   Overcast
9:01 AM 46.4 °F 42.9 °F 44.6 °F 93% 29.95 in 6.0 mi WSW 6.9 mph - N/A   Overcast
9:06 AM 46.4 °F 42.9 °F 44.6 °F 93% 29.95 in 7.0 mi Variable 6.9 mph - N/A   Overcast
9:08 AM 46.4 °F 42.9 °F 44.6 °F 93% 29.95 in 7.0 mi WSW 6.9 mph - N/A   Overcast
9:13 AM 46.4 °F 41.5 °F 44.6 °F 93% 29.95 in 7.0 mi WSW 10.4 mph - N/A   Overcast
9:42 AM 44.6 °F 40.2 °F 42.8 °F 93% 29.96 in 8.0 mi WSW 8.1 mph - N/A   Overcast
9:50 AM 44.6 °F 39.2 °F 42.8 °F 93% 29.96 in 8.0 mi WSW 10.4 mph 18.4 mph N/A   Overcast
9:55 AM 44.4 °F 40.5 °F 41.7 °F 90% 29.96 in 8.0 mi WSW 6.9 mph 18.4 mph N/A   Overcast
10:34 AM 42.8 °F 37.0 °F 41.0 °F 93% 29.96 in 10.0 mi SW 10.4 mph 19.6 mph N/A   Light Drizzle
10:35 AM 42.8 °F 36.6 °F 41.0 °F 93% 29.96 in 9.0 mi SW 11.5 mph 19.6 mph N/A   Light Drizzle
10:52 AM 44.6 °F 39.7 °F 41.0 °F 87% 29.96 in 9.0 mi WSW 9.2 mph 17.3 mph N/A   Overcast
10:54 AM 44.6 °F 39.7 °F 41.0 °F 87% 29.96 in 10.0 mi WSW 9.2 mph 17.3 mph N/A   Overcast
10:55 AM 44.1 °F 38.6 °F 41.4 °F 90% 29.96 in 10.0 mi WSW 10.4 mph 17.3 mph 0.00 in   Overcast
11:05 AM 44.6 °F 38.8 °F 41.0 °F 87% 29.96 in 10.0 mi West 11.5 mph 20.7 mph N/A Rain Light Rain
11:15 AM 42.8 °F 37.0 °F 41.0 °F 93% 29.96 in 10.0 mi West 10.4 mph 23.0 mph N/A   Overcast
11:25 AM 42.8 °F 38.0 °F 39.2 °F 87% 29.96 in 10.0 mi WSW 8.1 mph - N/A   Overcast
11:37 AM 42.8 °F 37.5 °F 39.2 °F 87% 29.96 in 10.0 mi WSW 9.2 mph 18.4 mph N/A   Light Drizzle
11:48 AM 42.8 °F 36.6 °F 37.4 °F 81% 29.96 in 10.0 mi West 11.5 mph 18.4 mph N/A   Overcast
11:54 AM 42.8 °F 36.6 °F 37.4 °F 81% 29.96 in 10.0 mi West 11.5 mph 18.4 mph N/A   Overcast
11:55 AM 42.6 °F 36.3 °F 37.6 °F 82% 29.96 in 10.0 mi WSW 11.5 mph 18.4 mph 0.00 in   Overcast
12:10 PM 42.8 °F 36.2 °F 37.4 °F 81% 29.95 in 10.0 mi WSW 12.7 mph 24.2 mph N/A   Overcast
12:14 PM 42.8 °F 36.2 °F 37.4 °F 81% 29.95 in 10.0 mi WSW 12.7 mph 18.4 mph N/A   Overcast
12:17 PM 42.8 °F 36.6 °F 37.4 °F 81% 29.95 in 10.0 mi SW 11.5 mph 18.4 mph N/A   Overcast
12:19 PM 42.8 °F 37.0 °F 37.4 °F 81% 29.95 in 10.0 mi SW 10.4 mph 18.4 mph N/A   Overcast
12:55 PM 42.8 °F 37.0 °F 37.9 °F 83% 29.95 in 6.0 mi West 10.4 mph 23.0 mph 0.00 in   Light Drizzle
12:56 PM 42.8 °F 35.8 °F 37.4 °F 81% 29.95 in 5.0 mi West 13.8 mph 23.0 mph N/A   Haze
12:57 PM 42.8 °F 35.4 °F 37.4 °F 81% 29.95 in 5.0 mi WSW 15.0 mph 21.9 mph N/A   Haze
12:59 PM 42.8 °F 36.6 °F 37.4 °F 81% 29.95 in 5.0 mi WSW 11.5 mph 21.9 mph N/A Rain Light Rain
1:03 PM 42.8 °F 38.0 °F 37.4 °F 81% 29.94 in 5.0 mi WSW 8.1 mph 21.9 mph N/A Rain Light Rain
1:25 PM 42.8 °F 37.5 °F 37.4 °F 81% 29.92 in 9.0 mi WSW 9.2 mph 20.7 mph N/A   Mostly Cloudy
1:27 PM 42.8 °F 37.5 °F 37.4 °F 81% 29.92 in 9.0 mi West 9.2 mph 18.4 mph N/A   Mostly Cloudy
1:31 PM 44.6 °F 41.4 °F 37.4 °F 76% 29.92 in 10.0 mi WSW 5.8 mph 18.4 mph N/A   Mostly Cloudy
1:44 PM 44.6 °F 38.1 °F 37.4 °F 76% 29.92 in 10.0 mi SW 13.8 mph 23.0 mph N/A Rain Light Rain
1:55 PM 42.6 °F 37.2 °F 37.8 °F 83% 29.93 in 9.0 mi West 9.2 mph 21.9 mph 0.01 in Rain Light Rain
2:09 PM 42.8 °F 36.2 °F 37.4 °F 81% 29.94 in 10.0 mi WSW 12.7 mph 18.4 mph N/A   Overcast
2:10 PM 42.8 °F 36.2 °F 37.4 °F 81% 29.94 in 10.0 mi WSW 12.7 mph 18.4 mph N/A   Overcast
2:11 PM 42.8 °F 36.6 °F 37.4 °F 81% 29.94 in 10.0 mi West 11.5 mph 18.4 mph N/A   Overcast
2:12 PM 42.8 °F 36.2 °F 37.4 °F 81% 29.94 in 10.0 mi West 12.7 mph 18.4 mph N/A Rain Light Rain
2:14 PM 42.8 °F 35.8 °F 37.4 °F 81% 29.94 in 10.0 mi West 13.8 mph 19.6 mph N/A Rain Light Rain
2:22 PM 41.0 °F 33.9 °F 35.6 °F 81% 29.95 in 10.0 mi West 12.7 mph 24.2 mph N/A Rain Light Rain
2:29 PM 41.0 °F 34.7 °F 35.6 °F 81% 29.94 in 10.0 mi West 10.4 mph - N/A   Overcast
2:55 PM 40.1 °F 32.7 °F 33.3 °F 77% 29.96 in 10.0 mi West 12.7 mph 25.3 mph 0.00 in   Overcast
3:19 PM 39.2 °F 30.8 °F 32.0 °F 75% 29.96 in 10.0 mi West 15.0 mph 21.9 mph N/A   Overcast
3:55 PM 38.3 °F 31.4 °F 32.9 °F 81% 29.99 in 10.0 mi West 10.4 mph 20.7 mph N/A   Overcast
4:00 PM 39.2 °F 35.0 °F 33.8 °F 81% 29.99 in 10.0 mi WSW 5.8 mph 18.4 mph N/A   Light Drizzle
4:09 PM 39.2 °F 33.0 °F 33.8 °F 81% 29.99 in 10.0 mi West 9.2 mph 18.4 mph N/A   Overcast
4:18 PM 39.2 °F 32.5 °F 33.8 °F 81% 30.00 in 10.0 mi WSW 10.4 mph - N/A   Light Drizzle
4:29 PM 37.4 °F 32.1 °F 33.8 °F 87% 30.01 in 10.0 mi Variable 6.9 mph - N/A   Overcast
4:48 PM 39.2 °F 31.6 °F 32.0 °F 75% 30.02 in 10.0 mi West 12.7 mph 20.7 mph N/A   Overcast
4:55 PM 38.5 °F 29.2 °F 32.2 °F 78% 30.02 in 10.0 mi WNW 17.3 mph 23.0 mph 0.00 in   Overcast
5:55 PM 39.0 °F 30.6 °F 32.7 °F 78% 30.04 in 10.0 mi WNW 15.0 mph - N/A   Overcast
6:55 PM 40.1 °F 31.6 °F 33.4 °F 77% 30.10 in 10.0 mi WNW 16.1 mph - N/A   Overcast
7:55 PM 40.5 °F 33.2 °F 33.8 °F 77% 30.15 in 10.0 mi WNW 12.7 mph - N/A   Overcast
8:55 PM 41.2 °F 33.7 °F 34.3 °F 77% 30.17 in 10.0 mi NW 13.8 mph - N/A   Overcast
9:55 PM 42.3 °F 35.9 °F 35.1 °F 76% 30.21 in 10.0 mi NW 11.5 mph - N/A   Overcast
10:34 PM 42.8 °F 36.6 °F 35.6 °F 76% 30.23 in 10.0 mi NNW 11.5 mph - N/A   Mostly Cloudy
10:55 PM 40.5 °F 34.1 °F 34.3 °F 79% 30.23 in 10.0 mi NW 10.4 mph - N/A   Scattered Clouds
11:55 PM 41.0 °F 35.2 °F 33.8 °F 76% 30.25 in 10.0 mi NNW 9.2 mph - N/A   Clear